When you browse on this site, cookies collect data to enhance your experience and personalize the content and advertising you see.
Visit our Privacy Policy to learn more. By continuing to use the site, you agree to this use of cookies and data.
  • In Switzerland
  • List of Countries
  • For 7 days
  • Water Temperature
  • Weather Map
  • Weather Widgets
  • user-avatar
    Login

    Hourly Weather Kalat

    Today, 20 October, Sunday

    Time Temperature Precipitation Wind Pressure Humidity
    00:00 -2°C° 0 mm 1 mps 475 mmHg 65%
    01:00 -4°C° 0 mm 0 mps 475 mmHg 65%
    02:00 -4°C° 0 mm 0 mps 474 mmHg 64%
    03:00 -4°C° 0 mm 0 mps 474 mmHg 62%
    04:00 -4°C° 0 mm 0 mps 474 mmHg 60%
    05:00 -4°C° 0 mm 0 mps 474 mmHg 59%
    06:00 -4°C° 0 mm 0 mps 474 mmHg 56%
    07:00 -4°C° 0 mm 0 mps 475 mmHg 54%
    08:00 -3°C° 0 mm 0 mps 475 mmHg 51%
    09:00 -2°C° 0 mm 0 mps 476 mmHg 44%
    10:00 -1°C° 0 mm 0 mps 477 mmHg 37%
    11:00 0°C° 0 mm 0 mps 478 mmHg 29%
    12:00 +2°C° 0 mm 1 mps 478 mmHg 28%
    13:00 +2°C° 0 mm 1 mps 478 mmHg 27%
    14:00 +3°C° 0 mm 1 mps 478 mmHg 26%
    15:00 +2°C° 0 mm 1 mps 477 mmHg 30%
    16:00 +2°C° 0 mm 1 mps 477 mmHg 33%
    17:00 -1°C° 0 mm 2 mps 476 mmHg 36%
    18:00 -2°C° 0 mm 2 mps 476 mmHg 40%
    19:00 0°C° 0 mm 1 mps 476 mmHg 45%
    20:00 -1°C° 0 mm 1 mps 476 mmHg 49%
    21:00 -1°C° 0 mm 1 mps 475 mmHg 51%
    22:00 -2°C° 0 mm 1 mps 475 mmHg 52%
    23:00 -3°C° 0 mm 0 mps 475 mmHg 53%

    Tomorrow, 21 October, Monday

    Time Temperature Precipitation Wind Pressure Humidity
    00:00 -3°C° 0 mm 0 mps 474 mmHg 54%
    01:00 -4°C° 0 mm 0 mps 474 mmHg 54%
    02:00 -3°C° 0 mm 1 mps 474 mmHg 55%
    03:00 -3°C° 0 mm 1 mps 474 mmHg 53%
    04:00 -3°C° 0 mm 1 mps 474 mmHg 51%
    05:00 -3°C° 0 mm 1 mps 474 mmHg 50%
    06:00 -3°C° 0 mm 1 mps 474 mmHg 48%
    07:00 -2°C° 0 mm 1 mps 475 mmHg 46%
    08:00 -2°C° 0 mm 1 mps 475 mmHg 45%
    09:00 -1°C° 0 mm 1 mps 476 mmHg 44%
    10:00 0°C° 0 mm 1 mps 477 mmHg 42%
    11:00 +1°C° 0 mm 1 mps 477 mmHg 41%
    12:00 +1°C° 0.1 mm 1 mps 477 mmHg 45%
    13:00 -1°C° 0.1 mm 2 mps 477 mmHg 50%
    14:00 -1°C° 0.1 mm 2 mps 476 mmHg 54%
    15:00 -1°C° 0.2 mm 2 mps 476 mmHg 62%
    16:00 0°C° 0.2 mm 1 mps 475 mmHg 70%
    17:00 -1°C° 0.2 mm 1 mps 475 mmHg 78%
    18:00 -1°C° 0.3 mm 1 mps 475 mmHg 81%
    19:00 -2°C° 0.3 mm 1 mps 474 mmHg 84%
    20:00 -2°C° 0.3 mm 1 mps 474 mmHg 87%
    21:00 -2°C° 0.2 mm 1 mps 474 mmHg 87%
    22:00 -3°C° 0.2 mm 1 mps 474 mmHg 87%
    23:00 -3°C° 0.2 mm 1 mps 473 mmHg 87%

    Day after tomorrow, 22 October, Tuesday

    Time Temperature Precipitation Wind Pressure Humidity
    00:00 -3°C° 0.1 mm 1 mps 473 mmHg 87%
    01:00 -3°C° 0.1 mm 1 mps 473 mmHg 87%
    02:00 -5°C° 0.1 mm 0 mps 473 mmHg 87%
    03:00 -5°C° 0.1 mm 0 mps 473 mmHg 87%
    04:00 -5°C° 0.1 mm 0 mps 472 mmHg 88%
    05:00 -5°C° 0.1 mm 0 mps 472 mmHg 89%
    06:00 -4°C° 0.2 mm 1 mps 473 mmHg 88%
    07:00 -3°C° 0.2 mm 1 mps 473 mmHg 88%
    08:00 -3°C° 0.2 mm 1 mps 473 mmHg 87%
    09:00 -3°C° 0.2 mm 1 mps 473 mmHg 85%
    10:00 -2°C° 0.2 mm 1 mps 474 mmHg 82%
    11:00 -1°C° 0.2 mm 1 mps 474 mmHg 80%
    12:00 -1°C° 0.5 mm 1 mps 474 mmHg 81%
    13:00 -3°C° 0.5 mm 2 mps 474 mmHg 82%
    14:00 -2°C° 0.5 mm 2 mps 474 mmHg 84%
    15:00 -3°C° 0.7 mm 2 mps 474 mmHg 87%
    16:00 -3°C° 0.7 mm 2 mps 473 mmHg 90%
    17:00 -5°C° 0.7 mm 3 mps 473 mmHg 93%
    18:00 -4°C° 0.4 mm 2 mps 473 mmHg 93%
    19:00 -5°C° 0.4 mm 2 mps 473 mmHg 93%
    20:00 -6°C° 0.4 mm 2 mps 472 mmHg 93%
    21:00 -6°C° 0.1 mm 2 mps 472 mmHg 93%
    22:00 -6°C° 0.1 mm 1 mps 471 mmHg 93%
    23:00 -7°C° 0.1 mm 1 mps 471 mmHg 93%

    23 October, Wednesday

    Time Temperature Precipitation Wind Pressure Humidity
    00:00 -7°C° 0 mm 1 mps 471 mmHg 92%
    01:00 -7°C° 0 mm 1 mps 470 mmHg 92%
    02:00 -8°C° 0 mm 1 mps 470 mmHg 92%
    03:00 -8°C° 0 mm 1 mps 470 mmHg 91%
    04:00 -8°C° 0 mm 1 mps 470 mmHg 91%
    05:00 -9°C° 0 mm 0 mps 469 mmHg 91%
    06:00 -8°C° 0 mm 0 mps 470 mmHg 89%
    07:00 -8°C° 0 mm 0 mps 470 mmHg 87%
    08:00 -8°C° 0 mm 0 mps 470 mmHg 86%
    09:00 -6°C° 0 mm 1 mps 471 mmHg 78%
    10:00 -4°C° 0 mm 1 mps 472 mmHg 71%
    11:00 -3°C° 0 mm 1 mps 473 mmHg 63%
    12:00 -2°C° 0 mm 1 mps 473 mmHg 61%
    13:00 -1°C° 0 mm 1 mps 473 mmHg 58%
    14:00 0°C° 0 mm 1 mps 474 mmHg 56%
    15:00 -3°C° 0 mm 2 mps 473 mmHg 61%
    16:00 -4°C° 0 mm 2 mps 473 mmHg 66%
    17:00 -5°C° 0 mm 2 mps 472 mmHg 71%
    18:00 -6°C° 0 mm 2 mps 472 mmHg 75%
    19:00 -6°C° 0 mm 1 mps 471 mmHg 79%
    20:00 -7°C° 0 mm 1 mps 471 mmHg 83%
    21:00 -7°C° 0 mm 1 mps 471 mmHg 82%
    22:00 -7°C° 0 mm 0 mps 471 mmHg 81%
    23:00 -7°C° 0 mm 0 mps 471 mmHg 81%

    24 October, Thursday

    Time Temperature Precipitation Wind Pressure Humidity
    00:00 -7°C° 0 mm 0 mps 470 mmHg 77%
    01:00 -8°C° 0 mm 0 mps 470 mmHg 73%
    02:00 -8°C° 0 mm 1 mps 470 mmHg 69%
    03:00 -8°C° 0 mm 1 mps 470 mmHg 64%
    04:00 -8°C° 0 mm 1 mps 470 mmHg 59%
    05:00 -8°C° 0 mm 1 mps 470 mmHg 54%
    06:00 -7°C° 0 mm 1 mps 470 mmHg 51%
    07:00 -7°C° 0 mm 1 mps 471 mmHg 48%
    08:00 -6°C° 0 mm 1 mps 472 mmHg 45%
    09:00 -4°C° 0 mm 1 mps 473 mmHg 42%
    10:00 -2°C° 0 mm 1 mps 474 mmHg 40%
    11:00 -1°C° 0 mm 1 mps 475 mmHg 37%
    12:00 -1°C° 0 mm 1 mps 475 mmHg 37%
    13:00 0°C° 0 mm 1 mps 475 mmHg 37%
    14:00 0°C° 0 mm 1 mps 475 mmHg 37%
    15:00 0°C° 0 mm 1 mps 474 mmHg 42%
    16:00 -1°C° 0 mm 1 mps 474 mmHg 46%
    17:00 -2°C° 0 mm 1 mps 473 mmHg 50%
    18:00 -3°C° 0 mm 1 mps 473 mmHg 54%
    19:00 -4°C° 0 mm 1 mps 472 mmHg 57%
    20:00 -6°C° 0 mm 1 mps 472 mmHg 61%
    21:00 -6°C° 0 mm 1 mps 472 mmHg 60%
    22:00 -6°C° 0 mm 1 mps 472 mmHg 59%
    23:00 -6°C° 0 mm 1 mps 472 mmHg 59%

    25 October, Friday

    Time Temperature Precipitation Wind Pressure Humidity
    00:00 -6°C° 0 mm 1 mps 472 mmHg 58%
    01:00 -6°C° 0 mm 1 mps 471 mmHg 57%
    02:00 -7°C° 0 mm 1 mps 471 mmHg 56%
    03:00 -7°C° 0 mm 1 mps 471 mmHg 57%
    04:00 -7°C° 0 mm 1 mps 471 mmHg 57%
    05:00 -7°C° 0 mm 1 mps 471 mmHg 58%
    06:00 -7°C° 0 mm 1 mps 471 mmHg 57%
    07:00 -6°C° 0 mm 1 mps 472 mmHg 57%
    08:00 -6°C° 0 mm 1 mps 472 mmHg 56%
    09:00 -5°C° 0 mm 2 mps 473 mmHg 53%
    10:00 -4°C° 0 mm 2 mps 474 mmHg 51%
    11:00 -2°C° 0 mm 2 mps 475 mmHg 49%
    12:00 -2°C° 0 mm 2 mps 476 mmHg 48%
    13:00 -2°C° 0 mm 2 mps 476 mmHg 48%
    14:00 -1°C° 0 mm 2 mps 476 mmHg 47%
    15:00 -2°C° 0 mm 2 mps 475 mmHg 51%
    16:00 0°C° 0 mm 1 mps 475 mmHg 54%
    17:00 -1°C° 0 mm 1 mps 475 mmHg 58%
    18:00 -1°C° 0.1 mm 1 mps 474 mmHg 64%
    19:00 -2°C° 0.1 mm 1 mps 474 mmHg 71%
    20:00 -3°C° 0.1 mm 1 mps 473 mmHg 78%
    21:00 -3°C° 0.1 mm 1 mps 473 mmHg 80%
    22:00 -4°C° 0.1 mm 1 mps 473 mmHg 82%
    23:00 -4°C° 0.1 mm 1 mps 473 mmHg 84%
    Show more